Wind_Speed
42 43 43 42 41 40 40 40 40 41 42 42 43 43 44 44 45 45 46 47 47 48 48 49 49 49 50 50 51 51 51 52 52 52 52 52 52 52 52 52 52 51 51 51 50 50 49 49 48 48 47 47 46 46 45 45 45 44 44 44 44 44 44 43 43 43 42 42 42 42 41 41 41 41 41 40 40 39 39 38 38 38 38 38 37 37
42 42 42 41 40 40 40 40 40 41 42 43 44 44 44 45 45 46 46 47 47 48 48 49 49 50 50 50 50 51 51 51 51 51 51 51 51 50 50 50 49 49 48 48 47 47 46 46 45 45 45 44 44 44 44 44 43 43 43 43 43 43 43 43 43 43 43 42 42 42 41 41 41 41 40 40 39 39 39 38 38 38 38 37 37 37
42 41 41 40 40 40 40 41 41 42 43 44 44 45 45 45 46 46 47 47 48 48 48 49 49 50 50 50 50 50 50 50 49 49 49 49 48 48 47 47 46 46 45 45 44 44 43 43 43 43 42 42 42 43 43 43 43 43 43 43 43 43 43 43 43 43 43 43 42 42 42 41 41 40 40 40 39 39 38 38 38 38 37 37 37 37
40 40 40 40 40 40 40 41 42 43 44 44 45 45 46 46 46 47 47 47 48 48 48 49 49 49 49 49 48 48 48 48 47 47 47 46 46 45 44 44 43 43 42 42 41 41 41 41 41 41 41 41 41 42 42 42 42 42 43 43 43 43 44 44 43 43 43 43 42 42 42 41 41 40 40 39 39 38 38 38 37 37 37 37 37 37
40 39 39 40 40 40 41 42 43 44 44 45 45 46 46 46 47 47 47 48 48 48 48 48 48 48 48 47 46 46 45 45 45 44 44 43 43 42 42 41 41 40 40 39 39 39 39 39 40 40 40 40 41 41 41 42 42 42 43 43 43 44 44 44 44 44 43 43 43 43 42 42 41 40 40 39 39 38 38 38 37 37 37 37 37 37
39 39 40 40 40 41 42 42 43 44 45 45 45 46 46 47 47 47 47 47 48 47 48 47 47 46 46 45 44 43 43 42 42 41 41 41 40 40 39 39 38 38 38 38 38 38 38 39 39 39 40 40 41 41 41 42 42 43 43 43 44 44 44 44 44 44 44 44 44 43 43 42 42 41 40 40 39 39 38 38 38 37 37 37 37 37
39 39 40 41 41 42 43 43 44 44 45 45 46 46 47 47 47 47 47 47 47 47 47 46 45 44 43 42 41 41 40 40 39 39 39 38 38 37 37 37 37 36 36 36 37 37 37 38 38 39 39 40 40 41 41 42 42 43 43 44 44 45 45 45 45 45 45 45 45 44 44 43 43 42 42 41 40 40 39 39 39 38 38 37 37 37
39 40 41 41 42 43 43 44 44 45 45 46 46 46 47 47 47 47 47 47 47 46 45 45 43 42 40 39 38 38 38 38 37 37 37 36 36 35 35 35 35 35 35 35 36 36 37 37 38 39 39 40 40 41 41 42 42 43 44 44 44 45 45 46 46 46 46 46 45 45 45 45 44 44 43 42 42 41 41 40 40 39 39 38 37 37
40 41 41 42 42 43 44 44 44 45 45 46 46 47 47 47 47 47 46 46 45 45 44 43 41 39 37 36 35 35 36 36 35 35 35 34 34 34 34 34 34 34 34 35 35 36 36 37 37 38 39 39 40 40 41 42 42 43 44 44 45 45 45 46 46 46 46 46 46 46 46 46 45 45 44 44 43 43 42 41 41 40 39 39 38 37
41 41 42 42 43 43 43 44 44 45 45 46 47 47 47 47 47 47 46 45 44 43 42 41 39 37 35 33 33 33 33 34 33 33 33 33 33 33 33 33 33 33 34 34 34 35 35 36 37 37 38 39 39 40 41 41 42 43 43 44 44 45 45 46 46 46 46 46 47 47 46 46 46 46 45 45 44 43 43 42 41 40 40 39 38 37
41 42 42 43 43 43 43 44 44 45 45 46 46 47 47 46 46 46 45 44 43 42 41 39 37 35 33 32 31 31 31 31 32 32 31 31 31 32 32 32 32 33 33 33 33 34 34 35 36 36 37 37 38 39 40 40 41 42 43 43 44 44 45 45 45 46 46 46 46 46 46 46 46 46 45 45 44 44 43 42 41 41 40 39 38 37
42 42 43 43 43 43 44 44 44 45 45 45 46 46 46 46 45 45 44 44 42 41 39 37 35 33 31 30 30 30 30 30 30 30 30 30 30 30 31 31 31 31 31 32 32 32 33 34 34 35 36 36 37 38 38 39 40 41 42 42 43 43 44 44 44 45 45 45 45 46 46 46 45 45 45 45 44 43 43 42 41 40 39 38 37 36
42 42 43 43 43 43 43 44 44 45 45 45 45 45 45 45 44 44 43 43 41 40 38 36 34 32 30 29 29 29 29 29 29 29 28 28 28 29 29 30 30 30 30 30 31 31 31 32 33 34 34 35 35 36 37 38 39 40 40 41 42 42 42 43 43 43 43 44 44 44 44 44 44 44 44 43 43 42 42 41 40 39 38 37 37 36
42 43 43 43 43 43 43 43 44 44 44 44 44 44 44 43 43 42 42 41 40 39 37 35 33 31 29 28 27 28 29 29 29 28 27 27 27 27 28 29 30 30 29 30 30 31 31 32 33 33 34 34 34 35 36 37 38 38 39 40 40 40 40 41 41 41 41 41 41 42 42 42 42 42 42 41 41 41 40 40 39 38 37 36 36 35
43 43 43 43 43 43 43 43 43 43 43 43 43 43 43 42 42 41 40 39 38 37 35 34 32 30 28 27 27 27 28 29 28 28 27 27 27 27 28 29 30 30 30 30 31 31 31 32 32 33 33 33 33 34 35 36 36 37 37 38 38 39 39 39 39 39 39 39 39 39 39 39 40 40 40 39 39 39 39 38 38 37 36 36 35 34
43 43 43 43 43 43 43 43 43 42 43 42 42 42 41 41 40 40 39 38 37 35 34 32 31 29 28 26 25 26 28 29 29 28 28 27 27 28 28 30 31 31 30 30 31 31 32 32 32 32 32 32 32 33 34 34 35 36 36 37 37 37 37 37 37 37 37 37 37 38 38 38 38 38 38 38 38 38 38 37 37 36 36 35 35 34
43 43 42 42 42 42 42 42 42 41 42 41 41 41 40 39 39 38 37 36 35 34 33 31 30 29 28 26 25 25 26 28 30 30 29 28 28 28 29 30 31 32 31 30 31 31 31 31 31 31 31 31 31 32 32 33 34 34 35 35 36 36 36 36 36 36 36 36 36 37 37 37 37 37 37 37 37 37 37 37 37 36 36 35 35 34
43 42 42 41 41 41 41 41 41 41 41 40 40 40 39 38 38 36 35 34 33 32 31 31 30 29 28 27 26 26 26 28 30 31 31 30 29 29 29 30 31 32 31 31 30 31 31 31 31 30 30 30 31 31 31 32 32 33 34 34 35 35 36 36 36 36 35 36 36 36 36 36 37 37 37 37 37 37 37 37 37 36 36 36 35 35
42 41 41 41 41 41 41 40 40 40 40 39 39 39 38 37 36 34 33 32 31 31 30 30 29 28 27 26 26 27 27 28 31 32 32 31 30 29 30 30 31 31 31 30 30 31 31 31 31 31 31 31 30 30 31 31 32 32 33 33 34 34 35 35 35 35 35 35 35 35 36 36 36 36 37 37 37 37 37 37 37 37 36 36 35 35
41 40 40 40 40 41 40 40 39 39 39 39 38 37 36 35 34 32 31 30 30 30 29 28 28 27 26 26 26 27 28 29 31 33 33 32 31 30 30 30 31 31 31 30 30 30 31 31 31 31 30 30 30 30 30 30 31 31 32 32 33 33 34 34 35 35 35 35 35 35 35 35 36 36 36 37 37 37 37 37 37 37 36 36 36 35
40 40 39 39 39 40 40 39 39 38 38 37 37 36 35 33 32 31 30 29 29 28 28 27 26 26 26 26 26 27 29 30 32 33 34 33 31 30 30 30 31 31 31 30 30 30 30 30 30 30 29 29 29 28 28 29 29 30 31 31 32 33 33 34 34 34 34 35 35 35 35 35 35 36 36 36 37 37 37 37 37 37 36 36 36 35
39 39 39 39 39 39 39 38 37 37 36 35 35 34 33 31 30 30 29 28 27 27 27 26 26 26 26 26 27 28 29 30 32 34 35 34 32 30 29 30 31 31 31 30 29 29 29 29 28 27 27 26 26 26 26 27 27 28 29 30 31 31 32 33 33 33 34 34 34 34 34 35 35 36 36 36 37 37 37 37 37 37 36 36 36 35
39 39 39 39 38 38 38 37 36 35 34 33 32 32 31 30 29 28 28 27 26 26 26 26 26 26 26 26 27 27 28 30 32 34 34 34 32 31 30 30 31 31 30 30 29 28 27 27 26 25 24 24 24 24 24 24 25 26 27 28 29 30 31 31 32 32 33 33 34 34 34 35 35 35 36 36 37 37 37 37 37 37 37 37 36 36
38 38 38 38 37 37 36 35 34 33 32 31 30 29 29 28 27 27 26 26 26 26 26 26 26 26 26 26 26 26 27 29 31 33 34 34 32 31 30 30 31 31 30 29 28 27 26 25 23 23 23 22 22 22 23 23 23 24 25 26 27 29 30 31 31 32 32 33 33 34 34 34 35 35 36 36 37 37 37 38 38 37 37 37 37 37
38 38 37 37 36 35 34 33 32 31 30 29 28 28 27 27 26 26 25 25 26 26 27 27 27 27 26 26 26 26 27 29 30 32 33 33 32 31 30 30 31 31 30 28 27 26 25 23 22 21 21 21 21 21 21 21 21 22 23 24 26 27 28 30 31 31 32 32 33 33 34 34 35 36 36 37 37 38 38 38 38 38 38 38 38 38
37 37 36 35 35 33 32 31 30 29 28 27 27 27 26 26 25 25 24 25 25 26 27 27 27 27 27 27 26 26 26 28 30 31 32 33 32 31 30 30 31 31 30 28 26 25 24 23 21 20 20 19 19 19 19 19 20 20 21 22 23 25 27 28 30 31 32 32 33 34 34 35 35 36 37 37 38 38 39 39 39 39 39 39 40 40
36 35 34 33 32 31 30 28 27 26 26 25 25 25 25 25 24 24 24 24 25 26 27 27 28 28 28 27 26 26 26 27 29 31 32 32 32 31 30 31 31 31 30 28 26 25 24 22 21 20 19 18 17 17 17 18 19 19 20 21 22 23 25 26 28 30 31 32 33 34 35 35 36 36 37 38 38 39 39 40 40 40 40 41 41 41
34 33 32 31 29 28 27 26 25 24 24 24 24 24 24 24 24 24 24 24 25 26 27 28 29 29 29 27 26 25 25 27 29 31 32 32 32 31 31 31 31 32 31 29 27 25 23 22 21 20 19 18 17 17 17 17 18 19 20 20 21 23 24 25 27 28 29 31 32 33 34 35 36 37 38 38 39 39 40 40 41 41 42 42 42 42
32 31 29 28 26 25 24 23 23 23 23 23 23 22 23 23 23 24 24 25 26 27 27 28 29 29 29 28 26 25 25 26 29 31 32 32 32 32 32 32 32 32 32 31 28 25 23 22 22 21 20 19 18 17 18 18 18 18 19 20 20 22 23 24 26 27 28 29 30 32 33 34 35 36 37 38 39 40 40 41 41 42 42 43 43 43
30 28 27 25 24 23 22 22 22 22 22 22 21 22 22 22 23 24 25 26 26 27 27 28 28 29 28 28 26 25 25 26 29 32 33 33 32 32 32 32 32 32 33 33 31 27 23 22 22 22 22 21 19 19 19 19 19 19 19 19 19 20 22 23 25 26 27 28 29 30 31 32 33 34 35 36 37 38 39 40 41 42 42 43 43 43
26 25 24 23 22 22 22 21 21 21 21 21 20 21 21 22 23 24 25 26 27 28 28 28 28 28 28 28 27 27 26 27 29 32 33 33 33 33 33 33 32 32 33 34 34 32 28 24 22 22 22 22 21 20 20 20 20 20 20 19 20 20 21 22 24 25 26 27 27 28 29 30 30 31 32 33 34 35 36 37 38 39 40 41 41 41
22 21 21 20 20 20 20 20 20 20 20 19 20 20 21 22 23 24 25 26 27 27 28 27 27 27 27 27 28 28 27 28 30 32 33 34 34 34 33 33 33 33 33 34 34 34 33 29 25 23 22 22 22 21 21 21 21 21 21 21 21 21 22 23 23 24 25 26 26 27 28 28 29 30 30 31 31 32 33 34 35 36 37 38 38 38
18 18 18 18 19 19 19 19 19 19 18 19 19 20 21 22 23 24 25 26 26 27 27 27 27 27 27 27 27 27 28 28 30 32 33 34 35 35 34 34 34 34 34 34 34 34 34 33 30 26 24 22 22 23 23 23 23 23 23 23 23 23 23 23 24 24 25 25 25 26 27 28 28 29 29 30 30 31 31 32 33 33 34 35 35 35
16 16 16 17 17 17 17 17 17 17 18 18 19 20 21 22 23 24 25 26 26 26 26 26 26 27 27 27 27 27 27 28 30 32 33 34 35 35 35 35 35 35 35 34 34 35 34 34 33 30 28 25 23 24 24 25 24 24 24 25 25 25 25 25 25 25 25 25 25 26 26 27 27 28 29 29 30 30 31 31 32 33 33 34 34 35
14 15 15 16 16 16 16 16 16 17 18 18 19 20 21 22 23 24 24 25 25 25 25 26 26 27 27 28 28 27 27 27 29 31 33 34 35 35 35 35 35 35 35 35 35 35 35 35 34 33 32 29 26 25 25 26 26 26 26 27 27 27 27 27 27 27 27 26 26 26 26 26 27 27 28 28 29 30 31 31 32 32 33 34 35 35
13 14 14 14 14 14 15 15 16 17 18 18 19 20 21 22 22 23 23 24 24 24 25 25 26 27 27 28 28 28 27 27 28 29 31 32 34 34 34 34 34 35 35 36 36 36 36 36 35 34 34 33 30 28 26 26 27 27 28 28 28 28 29 29 29 29 28 28 27 27 27 27 27 27 28 28 29 29 30 30 31 32 33 34 34 35
13 13 13 13 14 14 14 15 16 17 17 18 19 20 21 21 22 22 22 23 23 24 24 25 26 27 27 28 28 28 27 27 27 28 29 31 32 33 33 33 34 34 35 36 36 37 37 37 37 36 35 35 34 32 30 29 28 28 29 29 29 29 30 30 30 30 30 29 29 28 28 28 28 28 28 28 28 29 29 29 30 31 31 32 33 34
12 12 13 13 13 14 14 15 16 17 17 18 19 19 20 21 21 21 22 22 23 23 24 25 25 26 27 27 27 27 27 27 27 27 28 29 31 32 32 33 33 33 34 35 36 37 37 38 38 38 37 36 35 34 33 32 31 31 30 30 29 30 30 30 31 31 31 31 30 30 29 29 29 29 29 29 29 29 29 29 29 29 30 31 32 32
12 12 12 13 13 14 15 15 16 16 17 18 18 19 20 20 20 21 21 22 23 23 24 25 25 26 26 26 26 27 27 27 27 27 27 28 29 31 32 32 33 33 34 34 35 36 37 37 38 38 38 38 36 35 34 33 33 33 32 31 30 30 30 30 31 31 31 31 31 31 30 30 30 30 29 29 29 29 28 28 28 28 29 30 31 31
12 12 13 13 14 14 15 15 16 16 17 18 18 19 19 20 20 21 22 23 23 24 25 25 26 26 26 26 26 26 26 26 26 27 27 28 29 30 31 32 32 33 33 34 34 35 36 37 37 38 38 38 38 37 35 34 33 34 34 34 33 31 30 30 30 31 31 31 31 31 30 30 30 29 29 29 28 28 28 27 27 27 28 29 29 30
12 13 13 14 14 15 15 16 16 17 17 18 19 19 20 20 21 21 22 23 24 25 25 26 26 26 26 26 26 26 26 26 26 26 27 27 28 29 30 31 32 33 33 34 34 35 35 36 37 37 37 38 38 37 36 34 34 34 35 35 34 33 31 30 30 30 31 31 30 30 30 30 29 29 29 28 28 27 27 27 26 26 27 27 28 28
12 13 13 14 14 15 15 16 17 17 18 18 19 20 20 21 21 22 22 23 24 25 26 26 27 27 27 26 26 26 26 26 26 26 27 27 28 29 30 31 32 33 34 34 34 34 35 35 36 36 37 37 38 37 36 35 34 33 34 35 35 34 33 31 30 30 31 30 30 30 30 29 29 29 28 27 27 26 26 26 25 25 25 26 26 27
13 13 14 14 15 15 16 16 17 17 18 19 20 20 21 22 22 22 23 23 24 25 26 26 26 26 26 26 25 25 25 25 25 26 26 27 28 29 30 31 32 33 34 34 35 35 35 35 35 36 36 37 37 37 37 36 34 33 33 34 34 34 34 32 31 30 30 30 29 29 29 29 29 28 28 27 26 25 25 24 24 24 24 24 25 25
13 13 14 14 15 15 16 16 17 18 19 20 20 21 22 22 23 23 23 24 24 25 25 25 26 26 26 25 25 24 23 23 24 25 26 27 28 29 30 31 32 33 33 34 35 35 35 35 34 35 35 36 36 37 37 36 35 34 33 33 33 34 34 33 32 31 30 29 28 28 28 28 28 28 27 26 25 24 24 23 23 22 22 23 23 24
13 13 14 14 15 16 16 17 18 18 19 20 20 21 22 22 23 23 23 24 24 24 25 25 25 25 25 25 24 23 23 23 23 24 25 26 28 29 30 31 32 33 33 34 34 35 35 35 34 34 34 35 35 36 36 36 36 35 34 33 33 33 33 32 31 31 30 28 27 27 27 27 27 26 26 25 24 23 22 21 21 20 20 20 21 21
13 14 14 15 16 16 17 17 18 18 19 19 20 21 21 22 22 23 23 23 24 24 24 25 25 25 25 25 24 24 23 23 23 23 24 26 27 28 29 31 32 32 33 34 34 34 34 34 34 34 34 34 34 34 35 35 35 35 34 34 33 32 31 31 30 29 29 28 27 26 26 25 25 25 25 24 23 22 21 20 19 19 19 18 19 19
14 15 15 15 16 16 17 17 17 18 18 19 20 20 21 21 22 22 23 23 23 24 24 24 25 25 25 25 25 25 25 25 25 25 25 25 26 28 29 30 31 32 33 33 34 33 33 33 33 33 33 34 34 34 33 34 34 35 34 34 33 32 30 29 28 28 27 27 26 25 24 24 23 23 23 22 21 20 19 18 18 18 17 17 17 17
15 15 15 15 16 16 16 16 17 17 17 18 19 19 20 21 21 22 22 23 23 24 24 24 25 25 25 26 26 27 27 27 27 27 27 27 28 28 29 30 31 32 33 33 33 33 32 32 31 31 31 32 33 33 33 33 33 33 33 33 32 31 29 28 27 26 25 25 24 23 23 22 22 22 21 21 20 19 18 17 16 16 16 16 16 16
15 15 15 15 15 15 15 15 16 16 16 17 18 19 19 20 21 22 22 23 23 24 24 25 25 26 26 26 27 27 28 28 29 29 29 29 30 30 31 32 32 33 33 33 32 32 31 30 30 29 29 30 32 32 32 32 32 32 32 31 31 30 29 27 26 25 24 23 22 22 21 21 21 21 21 20 20 18 17 16 15 15 15 15 15 15
15 15 15 14 14 14 14 15 15 16 16 17 17 18 19 20 21 22 23 23 24 24 25 26 26 26 27 27 28 28 29 29 30 30 31 31 32 33 33 33 34 34 34 33 33 32 31 30 28 27 27 29 30 32 33 33 32 31 31 30 29 29 28 27 25 24 23 22 21 21 21 21 20 20 20 20 20 18 17 15 14 14 14 14 14 14
15 15 14 14 14 14 14 14 15 15 16 17 18 18 19 20 21 22 23 24 25 25 26 26 27 27 28 28 29 29 30 31 31 32 32 33 34 34 35 35 35 35 35 35 34 33 32 31 29 27 26 27 29 31 33 33 32 32 30 29 28 28 27 26 25 23 22 21 21 21 21 20 20 20 20 21 20 19 17 16 15 14 14 14 14 14
Wind_Direction
288 289 290 291 292 293 293 293 292 291 291 291 292 292 293 294 295 295 296 297 297 298 298 299 299 299 299 299 299 299 299 299 299 299 299 298 298 297 297 296 296 296 295 295 295 295 295 295 295 295 294 294 294 293 293 293 292 292 292 291 290 290 289 288 288 287 286 285 285 284 283 282 282 281 280 280 279 278 277 276 275 274 274 273 272 271
289 290 291 292 292 293 293 292 292 292 292 293 293 293 294 294 295 296 297 297 298 299 299 300 300 300 300 300 300 300 300 300 299 299 299 298 298 297 297 296 296 296 296 296 296 296 296 296 296 295 295 294 294 294 293 293 293 292 292 291 291 290 289 289 288 288 287 286 285 284 283 282 282 281 280 279 278 277 276 275 274 274 273 272 271 271
290 291 291 292 292 293 293 293 292 292 293 293 293 294 294 295 296 296 297 298 299 299 300 300 300 300 300 300 300 300 300 300 299 299 298 298 297 297 296 296 296 296 296 296 296 296 296 296 295 295 295 294 294 293 293 293 293 292 292 291 290 290 289 289 288 287 287 286 285 284 283 282 281 280 280 279 278 277 276 275 274 273 272 272 271 270
290 291 292 292 292 292 292 293 293 293 293 293 294 295 295 296 296 297 298 299 299 300 300 300 300 300 301 301 301 300 300 299 299 298 297 297 296 296 296 296 296 296 296 296 296 296 295 295 294 294 294 293 293 293 293 292 292 292 291 290 290 289 289 288 288 287 286 285 285 284 283 282 281 280 279 278 277 277 276 275 274 273 272 272 271 270
292 292 292 292 292 292 292 292 292 293 293 294 294 295 296 297 297 298 298 299 300 300 300 300 300 301 301 301 300 300 299 298 298 297 296 296 296 296 296 296 296 296 296 296 295 295 295 294 294 293 293 293 292 292 292 292 291 291 291 290 290 289 289 288 288 287 286 286 285 284 283 283 282 281 280 279 278 277 276 275 274 274 273 272 271 270
293 292 292 292 292 292 293 293 293 293 294 295 295 296 297 297 298 298 299 300 300 300 300 300 300 300 300 300 300 299 298 297 297 296 296 295 295 295 295 296 296 296 295 295 295 294 294 294 293 293 293 293 293 293 292 292 292 292 291 291 291 290 290 289 289 288 288 287 286 286 285 284 283 283 282 281 280 279 278 277 276 275 274 273 272 271
293 292 293 293 293 293 293 294 294 295 296 296 296 297 297 297 298 299 299 300 300 300 300 300 300 300 300 300 299 298 297 297 296 295 295 295 295 296 296 296 296 295 295 295 294 294 294 293 293 293 293 293 293 293 293 293 293 293 293 292 292 292 291 291 290 290 289 289 288 288 287 287 286 285 285 284 283 282 281 280 279 278 276 275 274 273
293 292 293 293 293 294 294 295 296 297 297 297 297 297 297 298 298 299 299 300 300 300 300 300 300 300 299 299 298 298 297 296 296 295 295 295 295 295 295 295 295 295 295 294 294 294 294 293 293 294 294 294 294 294 294 294 294 294 294 293 293 293 292 292 292 291 291 290 290 289 289 288 288 287 287 286 285 284 284 283 282 280 279 277 276 274
292 293 293 293 294 295 295 296 297 297 298 298 298 298 298 298 299 299 299 300 300 300 300 300 300 300 299 298 298 297 296 295 295 295 295 295 295 295 295 295 295 294 294 294 294 294 294 294 294 294 294 295 295 295 295 295 295 295 294 294 293 293 293 292 292 291 291 291 290 290 289 289 288 288 288 287 286 285 285 284 283 282 281 279 277 275
293 293 293 294 295 296 297 298 298 298 298 298 298 298 298 299 299 299 300 300 300 300 300 300 300 300 299 298 297 296 295 294 294 294 294 295 295 295 295 295 295 294 294 294 294 294 294 294 294 294 295 295 295 295 295 295 294 294 294 293 293 292 292 291 291 291 290 290 290 289 289 289 288 288 287 287 286 286 285 284 283 282 281 280 278 277
293 294 294 295 296 297 298 298 298 298 298 298 298 298 299 299 299 300 300 300 300 300 300 300 300 300 299 298 296 294 293 293 294 294 295 295 295 295 295 295 295 294 294 294 294 294 294 294 294 294 294 294 294 294 294 294 293 293 292 292 291 291 290 290 289 289 289 289 288 288 288 288 287 287 286 286 285 285 284 284 283 282 281 280 279 277
294 295 295 296 297 298 298 298 298 298 297 297 298 298 299 299 299 300 300 301 301 301 301 301 301 300 299 298 297 295 294 293 293 294 294 294 294 294 294 294 293 293 293 293 292 292 292 293 293 293 293 293 293 293 293 292 292 291 291 290 289 289 288 288 288 288 287 287 287 286 286 286 286 285 285 285 284 284 283 283 282 282 281 280 279 277
295 296 296 297 298 298 298 298 297 297 297 297 297 298 299 299 300 300 301 301 302 302 302 301 301 300 300 299 297 296 295 294 293 293 294 293 293 292 292 291 291 291 291 291 291 292 292 293 293 293 293 293 293 293 292 292 291 290 290 289 288 288 288 287 287 287 286 286 285 285 285 284 284 283 283 283 283 282 282 281 281 280 280 279 278 277
296 296 297 298 298 298 298 297 297 297 297 297 298 299 299 300 301 301 302 302 302 302 302 301 301 300 301 300 299 297 295 294 293 293 293 292 292 292 292 292 292 292 293 293 294 294 294 294 294 294 294 294 294 293 293 292 291 290 289 289 288 288 287 287 287 286 286 285 284 284 283 283 282 282 281 281 281 280 280 280 279 279 278 278 277 276
296 297 297 298 298 297 297 297 297 297 297 298 299 300 301 301 301 302 302 302 302 302 302 301 300 300 301 302 301 299 296 294 293 293 293 294 294 295 295 295 295 296 297 298 298 297 297 297 296 296 296 296 295 294 293 292 291 290 290 289 289 288 288 287 287 286 285 285 284 283 282 282 281 280 280 279 279 278 278 278 277 277 277 276 276 275
297 297 297 298 297 297 297 297 297 298 298 299 300 301 301 301 301 302 302 302 302 302 301 300 300 300 300 301 301 299 298 296 295 295 296 297 299 300 300 299 299 300 301 301 301 300 300 299 299 298 298 297 296 295 294 293 292 291 291 290 289 289 288 288 287 286 286 285 284 283 282 281 280 279 279 278 278 277 277 276 276 276 275 275 274 274
297 297 298 298 297 297 297 297 298 299 300 300 301 301 301 301 302 302 302 302 301 301 301 301 301 300 301 301 301 301 299 298 298 298 299 301 303 304 304 303 303 303 304 304 304 303 302 302 301 301 300 299 298 296 295 294 293 292 291 291 290 289 289 288 287 286 286 285 284 283 282 281 280 279 279 278 277 277 276 275 275 275 274 274 274 273
298 298 298 298 298 298 298 299 300 300 301 301 301 302 302 301 301 301 301 301 301 301 301 302 302 302 302 303 304 305 303 302 301 301 302 304 306 307 308 307 306 306 307 307 307 306 305 305 305 305 303 302 299 297 295 294 293 292 291 290 290 289 289 288 288 287 286 285 284 283 282 282 281 280 279 278 277 277 276 275 275 274 274 274 273 273
299 299 299 299 299 299 300 301 301 301 301 301 301 301 301 301 301 301 301 301 302 302 302 302 302 303 303 305 307 308 308 306 304 304 305 306 308 309 309 309 308 308 309 309 310 310 310 309 309 308 307 304 301 298 295 292 291 289 289 288 288 288 288 288 287 287 286 285 284 284 283 282 281 281 280 279 278 278 277 276 276 275 275 274 274 273
300 300 300 300 300 301 301 301 302 301 301 301 301 300 300 300 300 300 300 301 301 301 301 302 303 304 307 308 309 311 311 309 307 306 306 307 309 311 311 310 310 310 311 312 313 313 313 313 313 312 309 306 302 298 294 291 288 286 285 285 285 285 286 286 286 286 285 285 284 284 283 283 282 281 281 280 280 279 278 278 277 276 276 276 275 275
301 301 301 300 301 301 301 302 301 301 301 300 300 300 299 299 300 300 301 301 301 301 301 302 305 308 311 313 315 315 314 312 310 308 307 308 309 312 313 312 311 312 313 315 316 316 316 316 316 315 312 308 304 299 294 290 287 284 282 282 282 282 283 283 283 284 284 284 284 283 283 283 282 282 281 281 281 280 280 279 279 278 278 277 277 277
302 301 301 301 301 301 301 301 301 300 300 299 299 299 299 299 300 300 301 302 302 302 303 306 309 313 316 317 318 317 316 313 310 308 307 308 310 313 314 314 313 313 315 317 318 319 320 320 320 319 316 312 307 302 297 293 288 284 281 280 279 279 279 280 281 281 282 282 282 282 282 282 282 282 281 281 281 281 280 280 280 280 280 279 279 279
302 301 301 301 301 301 301 301 300 299 299 298 298 298 299 300 300 301 303 304 305 305 307 310 313 316 318 319 318 317 315 313 310 308 308 309 311 314 316 315 314 315 317 319 321 322 323 325 326 325 321 317 313 308 303 298 293 288 283 280 278 277 277 278 278 279 279 280 280 280 280 280 280 281 281 281 281 281 281 281 281 281 280 280 280 279
301 301 301 300 300 300 300 299 299 298 297 297 297 298 299 300 301 303 305 307 308 309 311 313 316 318 319 318 317 316 314 312 310 308 308 309 312 316 318 317 316 316 319 321 322 324 327 330 332 331 328 324 320 316 311 305 299 293 288 283 280 278 276 276 276 276 277 277 277 277 278 278 279 279 279 280 280 280 280 281 281 281 280 280 280 279
300 300 300 300 300 300 299 298 298 297 297 297 298 299 300 302 304 306 309 311 313 314 315 316 317 318 317 316 316 315 314 312 310 308 308 310 313 317 319 318 317 317 319 322 323 326 329 333 336 336 333 330 327 323 318 313 307 301 294 288 284 280 278 276 275 274 274 274 274 274 275 275 276 276 277 278 278 279 279 279 280 280 279 279 279 278
300 300 300 300 300 299 298 298 297 297 297 298 299 301 303 305 307 311 314 316 315 315 315 315 315 315 315 315 315 316 315 313 310 309 309 311 314 317 319 319 318 318 320 322 324 327 330 335 337 338 336 335 332 329 324 320 314 309 303 297 291 286 282 279 276 275 273 273 272 272 272 272 273 273 274 275 275 276 277 277 277 278 278 277 277 277
301 300 300 300 299 298 297 297 297 297 298 300 302 304 306 308 310 313 316 315 314 313 313 314 314 314 314 315 316 317 316 315 312 310 311 313 316 318 320 320 319 319 320 321 324 327 330 334 336 337 336 336 334 332 328 325 321 317 313 308 302 297 292 287 283 279 277 275 273 272 272 271 271 271 271 272 273 273 274 274 275 275 275 275 275 275
301 301 300 299 298 297 297 296 297 298 300 302 305 307 309 311 312 313 314 314 313 313 314 314 314 314 314 315 317 318 318 316 314 312 313 315 317 319 321 321 321 320 320 321 322 325 329 332 334 334 335 335 334 333 330 327 325 321 318 315 311 306 302 297 292 288 285 281 279 277 275 273 272 272 271 271 271 272 272 273 273 274 274 274 274 274
301 301 300 299 298 297 297 297 299 300 303 305 308 310 311 312 313 313 314 314 314 314 315 315 314 314 315 316 317 319 320 318 315 314 315 317 319 320 321 322 322 321 321 320 321 323 328 332 333 333 333 334 334 333 330 327 324 321 318 315 312 309 306 302 299 296 293 290 287 284 281 279 277 275 274 273 273 272 273 273 273 273 274 274 274 275
302 301 300 299 299 299 299 300 302 304 306 308 310 311 312 312 312 313 314 314 315 315 315 315 315 315 316 317 319 321 322 321 318 316 317 318 319 320 321 322 322 322 321 321 321 323 326 331 333 333 332 332 332 331 329 326 323 320 317 314 311 308 306 304 302 300 298 296 294 291 289 286 283 281 279 277 276 275 275 274 274 274 274 275 275 275
302 301 300 300 300 301 302 303 305 306 308 309 310 311 312 313 313 314 315 315 316 316 316 316 316 316 317 319 321 323 324 323 319 318 318 319 320 321 321 322 322 323 323 323 323 324 326 329 333 333 332 331 331 330 329 327 324 321 318 315 312 310 307 305 303 302 301 299 298 296 294 292 290 287 285 283 281 280 278 277 276 276 276 276 276 277
300 300 300 300 300 301 302 304 305 306 307 309 310 311 313 314 315 316 316 316 316 316 316 316 317 318 319 321 323 324 325 324 321 319 319 319 320 321 322 322 323 323 323 323 324 324 325 328 331 333 332 332 331 331 330 328 326 323 321 318 316 314 312 309 307 305 303 301 299 298 297 295 293 292 290 288 286 285 283 281 280 279 279 278 279 279
299 298 298 298 299 300 301 303 304 305 308 309 311 313 314 315 316 317 317 316 316 316 317 317 319 320 321 323 324 325 326 325 322 321 320 320 321 321 322 323 324 324 323 323 323 324 325 327 329 331 332 333 333 332 330 329 327 325 323 321 320 318 317 314 312 309 306 304 301 299 297 295 294 293 291 290 289 288 287 285 284 283 282 282 282 282
298 297 297 298 299 300 301 303 305 308 310 312 314 315 316 317 317 317 317 316 316 317 318 320 321 322 323 324 325 325 326 325 324 322 321 321 321 322 322 323 324 324 323 323 324 324 324 326 328 329 330 331 332 332 331 329 328 326 325 324 323 322 320 318 316 313 310 307 304 301 299 296 294 292 291 290 289 288 288 287 286 285 285 284 284 284
299 298 298 299 300 302 304 307 309 312 314 315 316 316 317 317 317 317 316 316 317 319 321 323 324 324 325 325 325 326 326 326 324 322 321 321 321 321 322 323 324 324 324 324 324 324 324 325 327 328 328 329 330 332 331 330 328 327 326 325 324 324 323 321 318 316 313 310 307 304 301 299 296 294 292 290 289 288 287 286 286 285 285 285 285 285
302 302 302 304 305 308 310 312 314 315 316 316 316 317 317 317 317 317 317 318 320 322 324 326 327 327 326 326 325 326 326 325 323 321 320 320 320 321 322 323 324 324 324 324 324 324 324 325 325 326 327 327 328 330 331 330 329 327 326 325 325 324 323 321 319 317 314 311 309 306 303 301 298 296 294 292 289 288 287 286 285 284 284 284 284 284
307 307 308 309 311 313 314 315 316 316 316 316 316 317 317 317 316 317 318 320 323 325 327 328 328 328 327 326 326 325 325 323 322 320 319 319 319 320 321 323 324 324 324 324 324 323 323 324 324 325 325 326 327 328 329 329 329 327 326 325 324 324 323 321 319 316 314 312 310 307 305 303 300 298 296 294 291 290 288 287 286 285 284 283 283 283
312 312 313 314 316 317 317 317 316 316 315 315 316 316 316 316 316 318 320 322 325 326 327 328 328 328 327 326 325 324 322 321 320 319 318 318 319 320 321 323 323 324 324 323 323 323 323 323 323 324 324 325 325 326 328 328 328 326 325 324 324 323 322 320 318 316 314 312 310 308 307 305 303 301 298 296 294 293 291 290 288 287 285 284 283 283
316 316 317 318 318 318 318 316 316 315 315 315 315 315 315 316 317 320 322 324 325 326 326 326 327 327 327 325 324 322 320 319 318 317 318 318 319 320 321 322 323 323 323 323 322 322 322 322 322 322 323 323 324 325 327 327 327 326 324 323 322 322 321 320 318 315 313 312 310 309 307 306 304 302 300 299 297 296 294 292 290 288 286 285 284 283
319 320 320 320 319 318 317 316 316 315 315 315 314 314 315 317 319 321 323 324 324 325 325 325 326 326 326 325 323 321 319 317 317 316 317 318 319 320 321 322 322 322 322 322 321 321 321 321 321 321 322 322 322 323 325 326 326 325 323 322 321 321 321 319 317 315 313 311 310 309 308 306 304 303 302 301 299 298 297 295 292 290 288 286 285 284
322 322 321 320 319 318 317 317 316 316 315 314 314 315 316 318 320 321 322 323 323 323 323 324 325 325 326 325 323 321 319 317 316 316 317 318 319 319 320 321 321 321 321 321 320 320 320 320 320 321 321 321 321 322 323 325 325 324 322 321 320 320 320 319 317 315 313 311 310 309 308 306 305 304 303 302 301 300 298 296 294 292 290 288 286 285
323 322 321 319 318 317 317 317 317 316 315 315 315 316 317 319 320 321 322 322 321 321 322 322 323 324 325 325 324 322 320 318 317 317 318 318 319 319 319 320 320 320 320 320 320 319 319 319 320 320 320 320 320 321 322 323 323 322 321 320 319 318 318 318 317 315 314 313 311 310 309 307 306 305 304 303 302 301 299 297 295 293 291 290 288 286
322 320 319 318 318 318 318 318 317 317 316 316 317 318 319 320 321 322 322 322 322 322 322 323 325 326 328 328 326 324 322 320 320 319 319 319 319 319 319 319 319 319 319 319 318 318 318 319 319 320 320 320 320 320 321 322 322 321 320 319 319 318 318 318 317 316 314 313 312 311 309 307 306 305 304 303 302 300 298 297 295 293 292 290 288 286
320 319 319 319 319 319 319 318 318 318 317 318 318 319 320 321 322 323 323 324 324 324 325 326 327 329 330 331 330 328 326 324 323 322 321 320 319 319 319 318 318 318 318 318 317 317 318 318 319 319 319 319 319 320 320 321 320 320 320 320 319 319 319 318 317 316 315 313 312 311 310 308 306 305 304 303 302 300 298 296 294 292 290 288 286 285
320 320 321 321 321 320 320 319 319 318 319 319 320 321 322 323 324 325 325 326 327 328 328 329 330 331 332 333 333 333 331 329 327 325 323 322 321 320 319 319 318 318 317 317 317 317 317 318 319 319 319 319 319 319 320 320 320 320 320 321 320 319 318 318 318 317 316 315 314 313 311 309 308 306 305 304 303 302 300 298 295 293 290 287 284 283
322 323 324 323 322 321 320 320 320 320 321 322 323 324 325 325 326 327 328 329 330 331 332 333 333 334 335 336 336 335 335 334 333 330 327 325 323 322 320 319 318 318 317 317 316 317 317 318 319 319 320 319 319 319 319 320 320 321 321 321 321 320 319 319 319 318 318 317 317 316 314 312 311 309 308 307 306 305 303 302 299 296 292 288 284 281
326 326 325 324 322 321 321 321 322 323 325 325 326 326 327 327 328 329 330 332 333 334 335 335 336 337 338 338 337 337 337 337 337 335 332 329 327 325 323 321 320 318 317 317 317 317 317 318 319 320 320 319 319 319 319 320 321 322 322 322 322 321 321 321 321 321 320 320 320 320 318 317 315 313 312 311 310 309 309 307 305 302 298 293 288 283
326 325 324 323 322 322 322 323 325 326 328 328 329 329 329 329 330 331 333 334 335 336 337 337 338 338 339 339 339 338 339 339 339 338 336 334 331 329 326 324 322 320 319 318 317 317 317 318 319 320 320 319 319 319 320 321 322 323 324 324 323 323 323 324 325 325 325 325 325 325 324 323 321 320 318 317 317 317 317 316 313 310 305 299 293 287
325 324 323 322 323 323 324 326 327 329 330 330 330 330 330 330 331 332 334 335 336 337 337 338 338 339 339 340 339 339 339 340 340 339 338 337 334 332 330 327 325 322 320 319 318 318 318 318 319 320 320 320 320 321 321 323 324 325 325 326 326 326 327 328 330 331 331 331 331 331 331 330 329 328 326 326 327 328 328 328 325 321 315 307 300 293
324 323 323 323 324 325 326 327 328 329 330 330 330 330 330 331 331 332 333 334 336 336 337 338 338 338 339 339 339 339 340 340 340 340 340 338 337 335 332 330 327 324 322 321 320 319 319 320 320 322 323 324 324 324 325 326 327 327 328 329 329 329 330 332 334 336 336 336 337 338 338 337 336 335 334 334 335 338 340 341 339 334 326 317 309 303
323 323 323 324 325 326 327 327 328 328 329 329 329 329 329 330 330 331 332 333 334 335 336 337 337 337 338 338 339 339 339 340 340 340 340 339 338 336 334 332 329 327 325 323 322 322 322 322 323 324 326 328 328 328 329 330 330 330 330 331 331 332 332 334 336 338 340 341 342 343 343 343 342 341 341 340 341 344 348 350 350 346 337 328 321 315
Height
3053 3052 3051 3050 3049 3048 3047 3046 3045 3044 3042 3041 3040 3038 3037 3035 3034 3032 3030 3028 3027 3025 3024 3022 3020 3019 3017 3016 3014 3013 3011 3009 3008 3006 3004 3003 3001 2999 2998 2996 2994 2993 2992 2990 2989 2987 2986 2985 2984 2983 2982 2981 2980 2979 2978 2977 2977 2976 2975 2974 2974 2973 2972 2972 2971 2971 2970 2969 2969 2968 2968 2967 2966 2966 2965 2965 2965 2964 2964 2964 2964 2963 2963 2963 2963 2963
3049 3048 3047 3046 3045 3044 3043 3042 3041 3040 3038 3037 3036 3034 3033 3031 3030 3028 3027 3025 3023 3021 3019 3018 3016 3015 3013 3012 3010 3008 3006 3005 3003 3001 3000 2998 2996 2995 2993 2992 2990 2989 2987 2986 2984 2983 2982 2981 2980 2979 2978 2977 2976 2975 2974 2974 2973 2972 2971 2971 2970 2969 2968 2968 2967 2967 2966 2965 2965 2964 2964 2963 2963 2962 2962 2961 2961 2961 2960 2960 2960 2959 2959 2959 2959 2959
3045 3044 3043 3043 3042 3041 3039 3039 3037 3036 3034 3033 3031 3030 3029 3027 3026 3024 3023 3021 3019 3017 3016 3014 3012 3011 3009 3008 3006 3004 3002 3000 2999 2997 2995 2994 2992 2990 2989 2987 2986 2984 2983 2982 2981 2979 2979 2977 2976 2975 2974 2973 2972 2971 2971 2970 2969 2969 2968 2967 2966 2965 2964 2964 2963 2963 2962 2961 2961 2960 2960 2959 2959 2958 2958 2958 2957 2957 2957 2956 2956 2956 2956 2955 2955 2955
3042 3040 3039 3039 3038 3037 3036 3034 3033 3032 3030 3029 3027 3026 3024 3023 3022 3020 3019 3017 3015 3014 3012 3010 3009 3007 3005 3004 3002 3000 2998 2996 2995 2993 2991 2989 2988 2986 2985 2983 2982 2981 2979 2978 2977 2976 2975 2974 2973 2972 2971 2970 2969 2968 2967 2966 2966 2965 2964 2963 2962 2961 2961 2960 2959 2959 2958 2958 2957 2956 2956 2955 2955 2955 2954 2954 2954 2953 2953 2953 2952 2952 2952 2951 2951 2951
3038 3037 3035 3035 3034 3033 3032 3030 3029 3027 3026 3025 3023 3022 3020 3019 3017 3016 3014 3013 3012 3010 3008 3007 3005 3003 3001 3000 2998 2996 2994 2993 2991 2989 2987 2985 2984 2982 2981 2980 2979 2977 2976 2975 2974 2973 2972 2970 2969 2969 2968 2967 2966 2965 2964 2963 2962 2961 2960 2959 2959 2958 2957 2956 2955 2955 2954 2954 2953 2952 2952 2952 2951 2951 2950 2950 2950 2949 2949 2949 2948 2948 2948 2948 2948 2947
3034 3033 3032 3030 3029 3029 3028 3026 3025 3024 3022 3020 3019 3018 3016 3014 3013 3012 3010 3009 3008 3006 3005 3003 3001 2999 2998 2996 2994 2992 2991 2989 2987 2985 2983 2982 2980 2979 2978 2976 2975 2974 2973 2972 2971 2969 2968 2967 2966 2965 2964 2963 2962 2961 2960 2959 2959 2958 2957 2956 2955 2954 2953 2952 2951 2951 2950 2949 2949 2948 2948 2947 2947 2947 2946 2946 2946 2945 2945 2945 2944 2944 2944 2944 2944 2943
3030 3029 3028 3026 3025 3024 3024 3022 3021 3019 3018 3016 3015 3014 3012 3011 3009 3008 3007 3005 3004 3003 3001 2999 2998 2996 2994 2992 2990 2989 2987 2985 2983 2981 2980 2978 2977 2975 2974 2973 2972 2971 2970 2969 2968 2966 2965 2964 2963 2962 2961 2960 2959 2958 2957 2956 2955 2954 2953 2952 2951 2950 2949 2948 2947 2947 2946 2945 2944 2944 2943 2943 2943 2942 2942 2942 2941 2941 2941 2941 2940 2940 2940 2940 2939 2939
3026 3025 3024 3023 3022 3020 3019 3019 3017 3016 3014 3012 3010 3009 3008 3007 3006 3004 3003 3002 3000 2999 2997 2996 2994 2993 2991 2989 2987 2984 2983 2981 2979 2978 2976 2975 2974 2973 2971 2970 2969 2968 2967 2966 2965 2964 2962 2961 2960 2959 2958 2957 2956 2954 2954 2953 2951 2950 2949 2948 2947 2946 2945 2944 2943 2943 2942 2941 2940 2940 2939 2939 2938 2938 2937 2937 2937 2937 2936 2936 2936 2936 2936 2936 2935 2935
3022 3021 3020 3019 3018 3017 3016 3014 3014 3012 3010 3008 3006 3005 3004 3003 3002 3001 3000 2998 2997 2995 2994 2992 2991 2989 2987 2985 2984 2981 2979 2978 2976 2975 2974 2972 2971 2970 2969 2968 2967 2965 2964 2963 2962 2961 2959 2958 2957 2956 2955 2954 2953 2951 2950 2949 2948 2947 2946 2944 2944 2942 2941 2940 2939 2939 2938 2937 2936 2936 2935 2934 2934 2934 2933 2933 2933 2932 2932 2932 2931 2931 2931 2931 2931 2931
3018 3017 3016 3015 3015 3014 3013 3011 3009 3008 3006 3004 3002 3001 3000 2999 2998 2997 2996 2995 2993 2991 2990 2989 2987 2986 2984 2982 2980 2978 2976 2974 2973 2972 2971 2969 2968 2967 2966 2965 2964 2963 2962 2960 2959 2958 2957 2955 2954 2953 2952 2951 2949 2948 2947 2946 2945 2944 2942 2941 2940 2939 2938 2937 2936 2935 2934 2933 2932 2932 2931 2930 2930 2929 2929 2929 2928 2928 2927 2927 2927 2927 2927 2927 2927 2927
3014 3014 3013 3012 3011 3010 3009 3008 3006 3004 3003 3001 2999 2997 2996 2995 2994 2993 2991 2990 2989 2988 2986 2984 2984 2982 2981 2979 2977 2975 2974 2972 2970 2969 2968 2967 2966 2964 2964 2962 2961 2960 2959 2958 2957 2955 2954 2953 2952 2950 2949 2948 2947 2946 2944 2943 2942 2940 2939 2938 2937 2935 2934 2933 2932 2931 2930 2929 2929 2928 2927 2927 2926 2925 2925 2924 2924 2924 2923 2923 2923 2923 2923 2923 2923 2923
3011 3010 3009 3009 3008 3006 3005 3004 3002 3000 2999 2997 2996 2994 2992 2991 2990 2989 2987 2985 2985 2984 2982 2981 2979 2979 2977 2975 2973 2972 2970 2969 2968 2967 2966 2965 2964 2963 2961 2960 2959 2958 2957 2956 2954 2953 2952 2951 2949 2948 2947 2946 2944 2943 2942 2940 2939 2938 2936 2935 2933 2932 2931 2930 2929 2928 2927 2926 2925 2924 2924 2923 2922 2921 2921 2920 2920 2919 2919 2919 2919 2918 2918 2918 2918 2918
3008 3007 3006 3005 3004 3003 3002 3000 2998 2997 2995 2994 2992 2991 2989 2987 2986 2984 2983 2981 2980 2979 2978 2977 2976 2975 2974 2972 2970 2969 2967 2966 2966 2965 2964 2963 2962 2960 2959 2958 2957 2956 2955 2954 2952 2951 2950 2949 2947 2945 2944 2944 2942 2940 2939 2938 2936 2934 2933 2931 2930 2929 2928 2926 2925 2924 2924 2922 2922 2921 2920 2919 2918 2917 2917 2916 2916 2915 2915 2914 2914 2914 2914 2914 2914 2914
3004 3004 3003 3002 3001 2999 2998 2996 2995 2993 2991 2990 2989 2987 2985 2983 2982 2980 2979 2977 2976 2975 2974 2973 2972 2971 2970 2969 2968 2966 2965 2964 2963 2963 2962 2961 2960 2958 2957 2955 2954 2953 2953 2951 2950 2948 2947 2946 2944 2943 2942 2941 2939 2938 2936 2934 2933 2931 2929 2928 2927 2925 2924 2923 2922 2921 2920 2919 2918 2917 2916 2915 2914 2914 2913 2912 2912 2911 2911 2911 2910 2910 2910 2910 2910 2910
3001 3001 2999 2999 2997 2996 2994 2993 2991 2989 2988 2986 2984 2983 2981 2979 2978 2976 2975 2974 2972 2971 2970 2969 2968 2968 2968 2967 2965 2963 2962 2961 2960 2960 2959 2959 2957 2955 2954 2952 2951 2950 2949 2948 2947 2945 2944 2943 2941 2940 2939 2938 2936 2934 2933 2931 2929 2928 2926 2924 2923 2922 2921 2919 2919 2917 2916 2915 2914 2913 2912 2912 2911 2910 2909 2909 2908 2908 2907 2907 2907 2906 2906 2906 2906 2906
2998 2997 2996 2995 2994 2992 2990 2989 2987 2985 2984 2982 2980 2979 2977 2975 2974 2973 2972 2970 2969 2968 2967 2966 2965 2965 2964 2964 2963 2961 2959 2958 2956 2956 2956 2955 2954 2952 2951 2949 2947 2946 2946 2945 2944 2942 2940 2939 2938 2937 2936 2934 2933 2931 2929 2928 2926 2924 2922 2921 2919 2918 2917 2916 2915 2914 2913 2912 2911 2910 2909 2908 2907 2906 2906 2905 2904 2904 2904 2903 2903 2903 2902 2902 2902 2903
2995 2994 2993 2991 2990 2988 2986 2985 2983 2982 2980 2978 2976 2975 2974 2972 2970 2969 2968 2967 2966 2964 2964 2963 2963 2962 2961 2961 2960 2959 2957 2955 2953 2952 2952 2952 2950 2948 2947 2946 2944 2943 2942 2941 2940 2939 2937 2936 2935 2934 2932 2931 2929 2928 2926 2924 2922 2920 2919 2917 2916 2914 2913 2912 2911 2910 2909 2908 2907 2906 2905 2904 2904 2903 2902 2902 2901 2900 2900 2899 2899 2899 2899 2899 2899 2899
2991 2990 2989 2987 2986 2984 2982 2981 2979 2977 2976 2974 2973 2971 2970 2969 2967 2966 2965 2964 2963 2962 2961 2960 2960 2959 2959 2958 2956 2955 2954 2953 2950 2949 2948 2948 2947 2945 2944 2943 2941 2940 2939 2938 2937 2935 2934 2933 2931 2930 2929 2928 2926 2924 2922 2920 2919 2917 2915 2914 2912 2911 2909 2908 2907 2906 2905 2905 2904 2903 2902 2901 2900 2900 2899 2898 2898 2897 2897 2896 2896 2895 2895 2895 2895 2895
2988 2986 2985 2983 2981 2979 2978 2977 2975 2974 2972 2970 2969 2968 2966 2965 2964 2963 2962 2961 2960 2959 2959 2958 2957 2957 2956 2955 2954 2952 2950 2949 2947 2945 2944 2944 2944 2942 2941 2940 2938 2937 2936 2935 2934 2932 2931 2929 2928 2927 2925 2924 2922 2920 2919 2917 2915 2914 2912 2910 2909 2907 2906 2905 2904 2903 2902 2901 2900 2900 2899 2898 2897 2896 2896 2895 2894 2894 2893 2893 2892 2892 2892 2892 2892 2892
2984 2982 2981 2979 2977 2975 2974 2973 2972 2970 2968 2967 2966 2965 2964 2962 2961 2961 2960 2959 2958 2957 2957 2956 2955 2954 2954 2953 2951 2949 2947 2946 2944 2942 2941 2941 2940 2940 2938 2937 2935 2934 2933 2932 2931 2929 2928 2926 2925 2924 2922 2920 2918 2917 2915 2913 2912 2910 2909 2907 2905 2904 2903 2901 2900 2899 2899 2898 2897 2896 2895 2895 2894 2893 2892 2892 2891 2890 2890 2889 2889 2889 2889 2888 2888 2888
2980 2978 2977 2975 2974 2972 2970 2969 2968 2967 2965 2964 2962 2961 2960 2960 2959 2958 2958 2957 2956 2955 2954 2954 2953 2952 2951 2949 2948 2946 2944 2943 2941 2939 2938 2938 2938 2937 2936 2934 2932 2931 2930 2929 2928 2927 2925 2923 2922 2920 2918 2916 2914 2912 2911 2909 2908 2906 2905 2904 2902 2901 2900 2899 2897 2896 2895 2894 2894 2893 2892 2891 2891 2890 2889 2889 2888 2887 2887 2886 2886 2885 2885 2885 2885 2885
2976 2974 2973 2971 2970 2969 2968 2966 2965 2964 2962 2961 2960 2959 2958 2958 2957 2956 2955 2955 2954 2953 2952 2951 2950 2949 2948 2947 2945 2944 2942 2941 2939 2936 2934 2934 2934 2934 2934 2932 2929 2928 2927 2926 2925 2924 2922 2921 2919 2917 2915 2913 2910 2909 2907 2905 2904 2903 2902 2900 2899 2898 2897 2895 2894 2893 2892 2891 2890 2890 2889 2888 2888 2887 2886 2885 2884 2884 2884 2883 2883 2882 2882 2882 2882 2882
2972 2971 2969 2968 2967 2966 2964 2963 2962 2960 2959 2959 2958 2957 2956 2956 2955 2954 2953 2953 2952 2950 2949 2949 2948 2947 2946 2945 2944 2942 2940 2939 2936 2934 2932 2931 2931 2931 2931 2929 2927 2925 2924 2923 2922 2921 2919 2918 2916 2914 2911 2909 2907 2905 2904 2902 2901 2900 2899 2897 2896 2895 2894 2892 2891 2890 2889 2888 2887 2887 2886 2885 2884 2884 2883 2882 2881 2881 2880 2880 2879 2879 2879 2879 2878 2878
2969 2968 2967 2965 2964 2963 2962 2960 2959 2958 2957 2956 2956 2955 2954 2954 2953 2952 2951 2950 2949 2948 2947 2946 2945 2944 2944 2943 2942 2940 2939 2937 2934 2932 2930 2929 2929 2929 2928 2926 2924 2922 2921 2921 2919 2918 2917 2915 2914 2911 2909 2907 2905 2903 2901 2900 2898 2897 2896 2894 2893 2892 2891 2889 2888 2887 2886 2885 2884 2883 2883 2882 2881 2880 2879 2879 2878 2877 2877 2876 2876 2875 2875 2875 2874 2874
2966 2965 2964 2963 2961 2960 2959 2958 2957 2956 2955 2954 2954 2953 2952 2951 2951 2950 2949 2948 2946 2945 2944 2944 2943 2943 2942 2941 2940 2939 2937 2935 2933 2930 2928 2926 2926 2926 2925 2923 2921 2919 2919 2918 2917 2916 2914 2913 2911 2909 2907 2905 2903 2901 2899 2898 2896 2895 2893 2892 2891 2889 2888 2887 2885 2884 2883 2882 2881 2880 2879 2879 2878 2877 2876 2876 2875 2874 2874 2873 2873 2872 2872 2871 2871 2871
2964 2962 2961 2960 2959 2958 2957 2956 2955 2954 2953 2952 2951 2951 2950 2949 2948 2948 2947 2946 2945 2944 2943 2942 2941 2941 2940 2939 2939 2937 2935 2933 2930 2928 2926 2924 2924 2924 2923 2921 2919 2917 2915 2915 2914 2914 2912 2911 2909 2908 2905 2904 2902 2900 2898 2896 2895 2893 2891 2890 2889 2887 2886 2884 2883 2882 2881 2879 2879 2878 2876 2875 2875 2874 2873 2872 2872 2871 2870 2870 2869 2869 2868 2868 2867 2867
2960 2959 2958 2957 2956 2955 2954 2953 2953 2952 2951 2950 2950 2949 2948 2947 2946 2946 2945 2944 2943 2942 2941 2940 2939 2939 2938 2938 2937 2935 2934 2931 2928 2926 2924 2923 2922 2921 2920 2918 2916 2914 2913 2912 2912 2911 2910 2909 2907 2906 2904 2902 2900 2899 2897 2895 2893 2892 2890 2888 2887 2885 2884 2882 2881 2879 2878 2877 2876 2875 2874 2873 2872 2871 2870 2869 2869 2868 2867 2866 2866 2865 2864 2864 2863 2863
2958 2957 2955 2954 2954 2953 2952 2951 2951 2950 2949 2949 2948 2947 2946 2945 2944 2944 2943 2943 2942 2940 2939 2938 2937 2936 2936 2935 2935 2934 2932 2929 2926 2924 2922 2921 2919 2918 2917 2915 2914 2912 2910 2909 2909 2909 2908 2906 2905 2904 2902 2900 2899 2897 2895 2894 2892 2890 2889 2887 2885 2884 2882 2880 2879 2877 2876 2874 2873 2872 2871 2870 2869 2868 2867 2866 2865 2865 2864 2863 2863 2862 2861 2860 2859 2859
2955 2954 2953 2952 2951 2951 2950 2949 2949 2949 2948 2947 2946 2946 2945 2944 2943 2942 2941 2941 2940 2939 2938 2937 2935 2934 2933 2933 2933 2932 2930 2927 2924 2921 2920 2919 2917 2916 2915 2913 2912 2910 2908 2906 2906 2906 2906 2904 2903 2901 2899 2898 2897 2895 2894 2892 2890 2889 2887 2886 2884 2882 2880 2878 2877 2875 2874 2872 2871 2870 2869 2867 2866 2865 2864 2864 2863 2862 2861 2860 2859 2859 2858 2857 2856 2855
2952 2951 2950 2949 2949 2949 2948 2948 2947 2947 2946 2946 2945 2944 2944 2943 2942 2941 2940 2939 2938 2937 2936 2935 2934 2933 2931 2930 2930 2929 2928 2926 2922 2919 2918 2916 2915 2914 2913 2911 2910 2908 2906 2904 2902 2902 2902 2902 2901 2899 2897 2896 2895 2893 2892 2890 2889 2887 2885 2884 2883 2881 2879 2877 2875 2874 2872 2870 2869 2868 2866 2865 2864 2863 2861 2860 2859 2859 2858 2857 2856 2855 2854 2853 2853 2852
2949 2949 2948 2948 2947 2947 2946 2946 2945 2945 2945 2944 2944 2943 2942 2941 2940 2939 2938 2937 2936 2935 2934 2934 2932 2931 2930 2929 2927 2926 2925 2924 2921 2918 2916 2914 2913 2912 2911 2909 2908 2906 2904 2902 2899 2898 2898 2898 2898 2897 2895 2894 2893 2891 2889 2888 2886 2885 2883 2882 2881 2879 2877 2875 2874 2872 2870 2869 2867 2866 2864 2863 2861 2860 2859 2858 2857 2856 2855 2854 2853 2852 2851 2850 2849 2849
2948 2948 2947 2946 2946 2945 2945 2944 2944 2944 2944 2943 2942 2942 2941 2940 2939 2938 2937 2936 2935 2934 2933 2932 2931 2929 2928 2927 2925 2924 2923 2921 2919 2916 2914 2912 2911 2909 2909 2907 2905 2904 2903 2901 2898 2896 2894 2894 2894 2894 2893 2892 2890 2889 2887 2886 2884 2883 2881 2880 2879 2877 2875 2874 2872 2870 2869 2867 2865 2864 2862 2861 2859 2858 2856 2855 2854 2853 2852 2851 2850 2849 2848 2847 2846 2846
2947 2946 2946 2945 2945 2944 2944 2944 2943 2943 2943 2942 2941 2940 2939 2938 2937 2936 2935 2934 2934 2933 2932 2930 2929 2928 2926 2925 2924 2923 2921 2919 2917 2914 2912 2910 2908 2907 2906 2905 2903 2902 2900 2899 2897 2895 2893 2891 2890 2890 2890 2889 2888 2887 2885 2884 2882 2880 2879 2877 2876 2874 2873 2871 2869 2868 2867 2865 2864 2862 2860 2859 2857 2856 2854 2853 2852 2851 2850 2849 2848 2846 2845 2844 2843 2843
2946 2946 2945 2945 2944 2944 2944 2943 2942 2942 2941 2940 2940 2939 2938 2937 2936 2935 2934 2933 2932 2931 2930 2929 2927 2926 2924 2923 2922 2921 2919 2918 2915 2912 2910 2908 2906 2905 2904 2903 2901 2899 2898 2896 2894 2893 2891 2889 2888 2886 2886 2886 2885 2884 2883 2881 2879 2878 2876 2875 2873 2872 2870 2869 2867 2866 2864 2863 2861 2860 2858 2857 2855 2854 2853 2851 2850 2849 2847 2846 2845 2844 2843 2841 2840 2839
2945 2945 2944 2944 2944 2943 2943 2942 2941 2940 2940 2939 2939 2938 2937 2936 2935 2934 2934 2932 2931 2930 2929 2927 2926 2924 2923 2921 2920 2919 2918 2916 2914 2911 2909 2907 2905 2903 2902 2901 2899 2897 2895 2894 2892 2890 2888 2887 2885 2884 2883 2882 2882 2882 2881 2879 2877 2875 2874 2872 2871 2869 2868 2866 2864 2863 2862 2860 2859 2857 2856 2854 2853 2852 2850 2849 2848 2846 2845 2844 2843 2842 2840 2839 2838 2837
2944 2944 2943 2943 2942 2942 2941 2941 2940 2939 2939 2938 2937 2937 2936 2935 2934 2934 2932 2931 2930 2929 2927 2925 2924 2923 2921 2920 2918 2917 2916 2915 2913 2911 2908 2906 2904 2902 2900 2899 2897 2895 2893 2891 2889 2888 2886 2884 2883 2882 2880 2879 2878 2878 2878 2877 2875 2874 2872 2870 2869 2867 2865 2864 2862 2860 2859 2858 2856 2855 2853 2852 2850 2849 2848 2847 2845 2844 2843 2842 2841 2840 2839 2837 2836 2834
2943 2943 2942 2942 2941 2941 2940 2939 2939 2938 2938 2937 2936 2936 2935 2934 2933 2932 2931 2930 2929 2927 2926 2924 2923 2921 2920 2918 2917 2915 2914 2913 2912 2909 2907 2905 2903 2901 2899 2897 2896 2894 2892 2889 2887 2885 2884 2882 2880 2879 2878 2877 2876 2875 2874 2874 2873 2872 2870 2869 2867 2865 2864 2862 2859 2858 2856 2855 2853 2852 2850 2849 2848 2846 2845 2844 2843 2842 2841 2840 2839 2837 2836 2835 2834 2832
2942 2942 2941 2941 2940 2940 2939 2939 2938 2938 2937 2936 2935 2935 2934 2933 2932 2931 2930 2929 2927 2926 2924 2923 2922 2920 2919 2917 2916 2914 2913 2911 2910 2908 2906 2904 2902 2899 2897 2896 2894 2893 2890 2888 2886 2884 2882 2880 2878 2876 2875 2874 2874 2873 2871 2870 2869 2868 2867 2866 2865 2864 2861 2859 2857 2855 2853 2852 2850 2849 2848 2846 2844 2843 2842 2841 2840 2839 2838 2837 2836 2835 2834 2832 2831 2830
2941 2941 2940 2940 2939 2939 2939 2938 2937 2937 2936 2935 2934 2934 2933 2932 2931 2930 2929 2928 2926 2925 2924 2922 2921 2919 2918 2916 2915 2913 2912 2910 2909 2907 2905 2903 2900 2898 2896 2894 2892 2891 2889 2887 2885 2883 2881 2879 2877 2874 2873 2871 2870 2870 2869 2868 2867 2865 2864 2863 2862 2861 2860 2858 2855 2853 2851 2849 2847 2846 2844 2843 2842 2840 2839 2838 2837 2836 2835 2834 2833 2832 2831 2829 2828 2827
2940 2940 2939 2939 2939 2938 2938 2937 2936 2936 2935 2934 2934 2933 2932 2931 2930 2929 2928 2926 2925 2924 2922 2921 2919 2918 2917 2915 2914 2912 2911 2909 2907 2905 2904 2901 2899 2897 2895 2893 2891 2889 2887 2885 2884 2882 2880 2877 2875 2874 2872 2869 2868 2867 2866 2866 2864 2863 2861 2859 2858 2858 2857 2856 2854 2851 2849 2847 2845 2843 2842 2840 2839 2838 2836 2835 2834 2833 2832 2831 2830 2829 2828 2827 2825 2825
2939 2939 2939 2938 2938 2937 2937 2936 2935 2935 2934 2933 2933 2932 2931 2930 2929 2928 2927 2925 2924 2922 2921 2919 2918 2917 2916 2914 2913 2911 2909 2908 2906 2904 2902 2900 2898 2895 2893 2891 2889 2887 2885 2884 2882 2880 2878 2876 2874 2872 2870 2868 2866 2865 2864 2864 2863 2861 2859 2857 2855 2854 2854 2853 2851 2849 2846 2844 2842 2841 2839 2837 2836 2834 2833 2832 2831 2830 2829 2828 2827 2826 2825 2824 2823 2822
2939 2939 2938 2938 2937 2936 2936 2935 2934 2934 2933 2932 2932 2931 2930 2929 2928 2927 2925 2924 2923 2921 2920 2918 2917 2916 2915 2914 2912 2910 2908 2906 2904 2902 2900 2898 2896 2894 2892 2889 2888 2885 2884 2882 2880 2878 2877 2875 2873 2870 2869 2867 2864 2863 2861 2861 2860 2859 2857 2855 2853 2851 2850 2850 2849 2846 2844 2841 2840 2838 2836 2834 2833 2831 2830 2829 2828 2827 2826 2825 2824 2823 2822 2821 2820 2819
2938 2938 2937 2937 2936 2935 2935 2934 2933 2933 2932 2931 2930 2929 2928 2927 2926 2925 2924 2923 2921 2920 2919 2917 2916 2914 2913 2912 2911 2909 2908 2905 2903 2901 2899 2897 2894 2892 2890 2888 2886 2884 2882 2880 2878 2876 2875 2873 2871 2869 2867 2865 2863 2861 2859 2858 2858 2857 2855 2853 2851 2848 2846 2845 2845 2843 2841 2839 2837 2835 2834 2832 2830 2829 2828 2826 2825 2824 2823 2822 2821 2820 2819 2818 2817 2816
2938 2937 2936 2936 2935 2934 2934 2933 2932 2932 2931 2930 2929 2928 2926 2925 2924 2923 2922 2921 2919 2918 2917 2915 2914 2913 2911 2910 2909 2908 2906 2904 2902 2900 2897 2895 2893 2891 2889 2886 2884 2882 2880 2878 2876 2874 2873 2871 2869 2868 2866 2864 2861 2859 2858 2856 2855 2854 2853 2851 2849 2847 2844 2842 2841 2839 2838 2836 2835 2833 2831 2829 2827 2826 2825 2824 2823 2822 2821 2820 2819 2818 2817 2816 2815 2814
2937 2936 2935 2935 2934 2934 2933 2932 2931 2930 2929 2928 2927 2926 2925 2924 2923 2921 2920 2919 2918 2916 2915 2914 2912 2911 2909 2909 2907 2906 2905 2904 2901 2899 2896 2894 2892 2889 2887 2885 2883 2880 2879 2877 2874 2873 2871 2869 2867 2866 2864 2862 2860 2858 2856 2854 2853 2851 2850 2849 2847 2844 2842 2840 2838 2836 2834 2833 2832 2830 2829 2827 2825 2823 2822 2821 2820 2819 2818 2817 2816 2815 2814 2813 2812 2811
2936 2935 2934 2934 2933 2932 2932 2931 2930 2929 2928 2927 2925 2924 2923 2922 2921 2920 2918 2917 2916 2914 2913 2912 2910 2909 2908 2906 2905 2904 2903 2902 2900 2898 2896 2893 2890 2888 2886 2883 2881 2879 2877 2875 2873 2871 2869 2868 2866 2864 2862 2860 2859 2857 2855 2853 2850 2848 2847 2845 2844 2841 2839 2838 2836 2834 2832 2830 2829 2828 2826 2824 2823 2821 2819 2818 2817 2816 2815 2814 2814 2813 2812 2811 2810 2809
2934 2934 2933 2933 2932 2931 2930 2930 2929 2928 2927 2925 2924 2923 2922 2921 2919 2918 2917 2916 2914 2913 2912 2910 2909 2907 2906 2904 2903 2902 2900 2899 2898 2896 2894 2892 2890 2887 2885 2882 2880 2878 2875 2873 2871 2869 2868 2866 2865 2863 2861 2859 2856 2854 2853 2851 2849 2846 2844 2842 2840 2839 2837 2835 2834 2832 2830 2828 2826 2825 2824 2822 2821 2819 2817 2816 2815 2814 2813 2812 2811 2810 2809 2808 2807 2806
2934 2933 2933 2932 2931 2930 2929 2929 2928 2926 2925 2924 2923 2922 2920 2919 2918 2917 2916 2914 2913 2911 2910 2909 2907 2906 2904 2903 2901 2899 2898 2896 2895 2894 2892 2890 2888 2886 2883 2881 2879 2876 2874 2872 2870 2868 2866 2865 2864 2862 2860 2858 2855 2853 2851 2849 2847 2844 2842 2839 2837 2835 2834 2832 2831 2829 2828 2826 2824 2823 2822 2820 2819 2817 2815 2814 2813 2812 2811 2810 2809 2808 2807 2806 2805 2804
2933 2932 2932 2931 2930 2929 2928 2927 2926 2925 2924 2923 2922 2921 2919 2918 2917 2916 2914 2913 2912 2910 2909 2907 2906 2904 2903 2901 2899 2898 2896 2894 2893 2891 2889 2887 2885 2883 2881 2879 2877 2874 2872 2870 2869 2867 2865 2864 2862 2861 2859 2856 2854 2851 2849 2847 2844 2842 2839 2837 2835 2833 2831 2830 2829 2827 2826 2824 2823 2821 2820 2819 2817 2815 2814 2813 2811 2810 2810 2809 2808 2807 2805 2804 2803 2802
2932 2931 2931 2930 2929 2928 2927 2926 2925 2924 2923 2922 2921 2920 2919 2917 2916 2914 2913 2912 2910 2909 2907 2905 2904 2902 2901 2899 2898 2896 2894 2892 2890 2889 2887 2884 2882 2880 2878 2876 2874 2872 2869 2868 2866 2864 2863 2862 2861 2859 2858 2855 2852 2849 2846 2844 2841 2839 2837 2835 2833 2830 2829 2827 2826 2825 2824 2822 2821 2820 2818 2817 2816 2814 2813 2811 2810 2809 2808 2807 2806 2805 2804 2803 2802 2801
2931 2930 2929 2929 2928 2927 2926 2925 2924 2923 2922 2921 2920 2919 2918 2916 2915 2913 2912 2910 2909 2907 2905 2904 2902 2901 2899 2898 2896 2894 2892 2890 2888 2886 2884 2882 2880 2878 2876 2874 2871 2869 2866 2864 2862 2861 2859 2858 2857 2857 2856 2854 2851 2847 2844 2841 2838 2836 2834 2832 2831 2829 2827 2825 2824 2824 2822 2821 2820 2818 2817 2816 2814 2813 2812 2810 2809 2808 2807 2806 2805 2804 2803 2801 2800 2799